Content
SEND FEEDBACK

Daily
Averages
Monthly
Summary
Oman

MADHAH, OMAN


Home > Middle East > Oman
Elevation: 279 feet     Latitude: 25 17N     Longitude: 056 20E

WEATHER
 
SELECT A DAY
Number of Records: 166,120;   Date Range: 7/1/96 - 9/18/14
 
SHARE

PRINT THIS DATA

[ ← Previous Day ]
WEATHER ALMANAC - JANUARY 31, 2013
[ Next Day → ]
[ °C ]   °F
Weather ElementAverageHighLow
Temperature73.4 °F77 °F (12:00 pm)69 °F (7:00 am)
Dewpoint65.8 °F66.2 °F (1:00 am)64.4 °F (4:00 am)
Humidity76 %88 % (5:00 am)61 % (1:00 pm)
Barometer29.94 in30.01 in (10:00 am)29.89 in (4:00 pm)
Wind Speed4.4 mph10.4 mph (1:00 pm)
Weather ElementAverage
Visibility5 mi
Wind DirectionSE (138.9 °)

Weather ElementTotal
Precipitation---
Cooling Degree Days8 (Base 65)
Growing Degree Days23 (Base 50)
Averaged from 29 records on January 31, 2013
WEATHER CONDITIONS BREAKOUT
WIND DIRECTION BREAKOUT
WEATHER BY HOUR - JANUARY 31, 2013
[ °C ]   °F
Local TimeTemperatureDewpointHumidityBarometerVisibilityWind DirectionWind SpeedGust SpeedPrecipitationEventsConditions
1:00 AM71.6 °F66.2 °F83 %29.92 in4.3 miNorth (360°)2.3 mphScattered Clouds
2:00 AM71.6 °F66.2 °F83 %29.92 in4.3 miCalmPartly Cloudy
3:00 AM71.6 °F66.2 °F83 %29.92 in5.0 miCalmPartly Cloudy
4:00 AM70.0 °F65.0 °F80 %29.93 in6.0 miCalmScattered Clouds
4:00 AM69.8 °F64.4 °F83 %29.92 in6.2 miCalmPartly Cloudy
5:00 AM69.8 °F66.2 °F88 %29.92 in6.2 miWNW (300°)3.5 mphScattered Clouds
6:00 AM69.8 °F64.4 °F83 %29.92 in5.0 miWest (260°)1.2 mphScattered Clouds
7:00 AM69.8 °F64.4 °F83 %29.95 in3.7 miWest (260°)2.3 mphMostly Cloudy
7:00 AM69.0 °F65.0 °F81 %29.95 in4.0 miWest (260°)2.3 mphHaze
8:00 AM69.8 °F66.2 °F88 %29.95 in3.7 miWNW (300°)3.5 mphMostly Cloudy
9:00 AM73.4 °F66.2 °F78 %29.98 in3.7 miWNW (300°)4.6 mphMostly Cloudy
10:00 AM75.2 °F66.2 °F73 %30.01 in3.7 miENE (70°)5.8 mphScattered Clouds
11:00 AM75.2 °F66.2 °F73 %29.98 in3.7 miENE (70°)6.9 mphScattered Clouds
12:00 PM77.0 °F66.2 °F69 %29.98 in4.3 miEast (80°)8.1 mphScattered Clouds
1:00 PM77.0 °F66.2 °F69 %29.95 in4.3 miESE (110°)10.4 mphScattered Clouds
1:00 PM77.0 °F66.0 °F61 %29.96 in4.0 miESE (110°)10.4 mphHaze
2:00 PM77.0 °F66.2 °F69 %29.92 in5.0 miESE (110°)10.4 mphScattered Clouds
3:00 PM77.0 °F66.2 °F69 %29.92 in5.0 miEast (100°)9.2 mphScattered Clouds
4:00 PM76.0 °F65.0 °F61 %29.91 in5.0 miENE (70°)8.1 mphHaze
4:00 PM75.2 °F64.4 °F69 %29.89 in5.0 miENE (70°)8.1 mphScattered Clouds
5:00 PM75.2 °F66.2 °F73 %29.89 in5.0 miESE (110°)5.8 mphScattered Clouds
6:00 PM75.2 °F66.2 °F73 %29.92 in5.0 miESE (110°)5.8 mph
7:00 PM73.4 °F66.2 °F78 %29.92 inESE (110°)5.8 mphClear
7:00 PM74.0 °F66.0 °F69 %29.93 in6.0 miESE (110°)5.8 mphClear
8:00 PM73.4 °F66.2 °F78 %29.95 in6.2 miESE (120°)3.5 mphScattered Clouds
9:00 PM73.4 °F66.2 °F78 %29.95 in6.2 miSE (130°)3.5 mphPartly Cloudy
10:00 PM73.0 °F66.0 °F74 %29.94 in6.0 miCalmScattered Clouds
10:00 PM73.4 °F66.2 °F78 %29.92 in6.2 miCalmPartly Cloudy
11:00 PM73.4 °F66.2 °F78 %29.92 in6.2 miSW (230°)1.2 mphPartly Cloudy
Hourly data recorded from OMFJ, located miles away from Madhah, Oman







STORIES FROM OUR PARTNERS